Regional Weather Roundup
Issued by NWS Spokane, WA

Home | Current Version | Previous Version | Text Only | Print | Product List | Glossary On
Versions: 1 2 3 4 5 6 7 8 9 10 11 12 13 14 15 16 17 18 19 20 21 22 23 24 25 26 27 28 29 30 31 32 33 34 35 36 37 38 39 40 41 42 43 44 45 46 47 48 49 50
000
NZUS01 KOTX 251705
RWROTX

Eastern Washington/Northern Idaho Roundup
National Weather Service, Spokane WA
1000 AM PDT FRI MAY 25 2018

Note: "fair" indicated few or no clouds below 12,000 feet with no
significant weather and/or obstructions to visibility.

...Northeast Washington and Northern Idaho Panhandle...

CITY           SKY/WX    TMP DP  RH WIND       PRES   REMARKS
Spokane Intl   PTSUNNY   71  52  50 S5        29.92S
Spokane Downto SUNNY     75  53  46 SW10G17   29.91F
Coeur d Alene  SUNNY     73  54  51 SE5       29.93S
Deer Park      SUNNY     70  54  56 VRB7      29.92F
Sandpoint      SUNNY     68  54  60 CALM      29.93F
Bonners Ferry  FAIR      64  55  72 CALM      29.93S

...Southeast Washington and southern Idaho Panhandle...

CITY           SKY/WX    TMP DP  RH WIND       PRES   REMARKS
Walla Walla    CLOUDY    71  55  56 S9        29.91F
Pullman/Moscow MOSUNNY   71  56  58 CALM      29.95S
Lewiston       MOSUNNY   70  59  68 W5        29.90F
Lowell           N/A     66  55  67 CALM      29.91F
Grangeville    FAIR      63  55  77 CALM      29.97S

...Columbia Basin...

CITY           SKY/WX    TMP DP  RH WIND       PRES   REMARKS
Ephrata        PTSUNNY   74  43  32 VRB3      29.87F
Moses Lake     PTSUNNY   71  46  40 SW3       29.89S
Pasco          CLOUDY    71  53  52 VRB6      29.89F
Richland       CLOUDY    71  52  51 CALM      29.88F
Hermiston      CLOUDY    73  54  51 W8        29.89F
Pendleton      CLOUDY    70  50  49 W7        29.91F

...East Slopes Cascades...

CITY           SKY/WX    TMP DP  RH WIND       PRES   REMARKS
The Dalles     CLOUDY    67  52  58 NW15      29.90F
Yakima         CLOUDY    70  46  42 N5        29.90F
Ellensburg     PTSUNNY   67  48  50 NW18      29.89F
Stampede Pass  PTSUNNY   52  47  83 VRB3      30.02S
Wenatchee      MOSUNNY   70  47  43 NW9       29.88F
Winthrop       FAIR      67  44  43 CALM      29.89F
Omak           SUNNY     72  50  45 N3        29.87F
Sunnyside      CLOUDY    67  49  52 CALM      29.89F

...Southern British Columbia...

CITY           SKY/WX    TMP DP  RH WIND       PRES   REMARKS

...Western Montana...

CITY           SKY/WX    TMP DP  RH WIND       PRES   REMARKS
Kalispell      SUNNY     67  54  63 SE5       29.95F
Missoula       SUNNY     67  52  58 VRB5      29.97F

...Neighboring Cities...

CITY           SKY/WX    TMP DP  RH WIND       PRES   REMARKS
Seattle        CLOUDY    57  46  66 N6        30.05F
Portland       PTSUNNY   57  46  66 N8        30.04S
Boise          SUNNY     73  53  49 NW9       29.89F
Great Falls    SUNNY     75  45  34 SW12G17   29.95S



USA.gov is the U.S. government's official web portal to all federal, state and local government web resources and services.